Location: Seven Kings
(51.5667°N, 0.1000°E)
Time: 03:39:55
(UTC+00:00)

CZ-2D R/B - Pass Details

Date: 29 October 2020
Orbit: 521 x 537 km, 97.4° (Epoch: 27 November)

Event Time Altitude Azimuth Distance (km) Brightness Sun altitude
Rises 17:22:40 0° 138° (SE) 2,652 6.5 -7.6°
Reaches altitude 10° 17:24:56 10° 128° (SE) 1,765 5.5 -7.9°
Maximum altitude 17:28:15 30° 66° (ENE) 974 4.0 -8.4°
Drops below altitude 10° 17:31:36 10° 6° (N) 1,773 5.8 -9.0°
Sets 17:33:53 0° 355° (N) 2,666 6.8 -9.3°
